Вернуться в каталог

COSMOS 1275 DEB

АктивенPO
NORAD 12757·DEBRIS·🇷🇺 Russia

Запущен Jun 4, 1981 с Plesetsk Cosmodrome

Loading…

Ближайшие Пролёты (ближайшие 24 часа)

TLE

СвежийSource: Space-Track

Эпоха: Sep 14, 2026, 22:31 UTC

1 12757U 81053DA  26257.93878190  .00000408  00000-0  35168-3 0  9994
2 12757  82.9505 147.5860 0057926 134.3502 236.6827 13.83444272265826

Отслеживайте COSMOS 1275 DEB в реальном времени с AllMySat

Download on the App Store